| time (UTC) | temp C | wind direction | speed KPH | gust KPH | rain 1hr cm | rain 24hr cm | rain mn cm | humidity % | barometer mb |
| 20260506005209 | 7 | 346 | 4.8 | 17.7 | 0.00 | 0.00 | 0.00 | 36 | 1019.5 |
| 20260506004234 | 7 | 351 | 3.2 | 16.1 | 0.00 | 0.00 | 0.00 | 39 | 1019.4 |
| 20260506003237 | 6 | 10 | 3.2 | 16.1 | 0.00 | 0.00 | 0.00 | 38 | 1019.4 |
| 20260506002243 | 7 | 347 | 4.8 | 16.1 | 0.00 | 0.00 | 0.00 | 37 | 1019.4 |
| 20260506001233 | 7 | 341 | 3.2 | 19.3 | 0.00 | 0.00 | 0.00 | 37 | 1019.4 |
| 20260505235107 | 7 | 353 | 4.8 | 19.3 | 0.00 | 0.00 | 0.00 | 40 | 1019.2 |
| 20260505234121 | 7 | 346 | 4.8 | 16.1 | 0.00 | 0.00 | 0.00 | 41 | 1019.2 |
| 20260505233131 | 7 | 332 | 4.8 | 16.1 | 0.00 | 0.00 | 0.00 | 38 | 1019.1 |
| 20260505232151 | 7 | 345 | 3.2 | 16.1 | 0.00 | 0.00 | 0.00 | 39 | 1019.0 |
| 20260505231155 | 7 | 351 | 4.8 | 16.1 | 0.00 | 0.00 | 0.00 | 39 | 1019.1 |
| 20260505230152 | 7 | 339 | 3.2 | 11.3 | 0.00 | 0.00 | 0.00 | 40 | 1019.0 |
| 20260505225133 | 7 | 346 | 4.8 | 14.5 | 0.00 | 0.00 | 0.00 | 40 | 1019.1 |
| 20260505224142 | 8 | 340 | 4.8 | 17.7 | 0.00 | 0.00 | 0.00 | 38 | 1019.0 |
| 20260505222000 | 7 | 323 | 4.8 | 19.3 | 0.00 | 0.00 | 0.00 | 41 | 1019.1 |
| 20260505220928 | 7 | 345 | 4.8 | 20.9 | 0.00 | 0.00 | 0.00 | 40 | 1019.1 |
| 20260505215946 | 7 | 341 | 4.8 | 20.9 | 0.00 | 0.00 | 0.00 | 42 | 1019.0 |
| 20260505215010 | 6 | 353 | 6.4 | 17.7 | 0.00 | 0.00 | 0.00 | 42 | 1019.1 |
| 20260505213944 | 7 | 344 | 4.8 | 14.5 | 0.00 | 0.00 | 0.00 | 41 | 1019.2 |
| 20260505212931 | 7 | 344 | 4.8 | 16.1 | 0.00 | 0.00 | 0.00 | 41 | 1019.1 |
| 20260505211903 | 7 | 348 | 4.8 | 16.1 | 0.00 | 0.00 | 0.00 | 42 | 1019.2 |
| 20260505210926 | 7 | 347 | 4.8 | 16.1 | 0.00 | 0.00 | 0.00 | 42 | 1019.2 |
| 20260505205853 | 7 | 345 | 6.4 | 17.7 | 0.00 | 0.00 | 0.00 | 42 | 1019.1 |
| 20260505202558 | 7 | 332 | 6.4 | 17.7 | 0.00 | 0.00 | 0.00 | 40 | 1019.4 |
| 20260505201623 | 7 | 351 | 4.8 | 20.9 | 0.00 | 0.00 | 0.00 | 45 | 1019.4 |
| 20260505200609 | 7 | 332 | 6.4 | 20.9 | 0.00 | 0.00 | 0.00 | 45 | 1019.5 |
| 20260505195600 | 6 | 351 | 4.8 | 14.5 | 0.00 | 0.00 | 0.00 | 44 | 1019.4 |
| 20260505194545 | 6 | 352 | 4.8 | 17.7 | 0.00 | 0.00 | 0.00 | 44 | 1019.4 |
| 20260505193513 | 6 | 351 | 6.4 | 17.7 | 0.00 | 0.00 | 0.00 | 46 | 1019.5 |
| 20260505192504 | 5 | 357 | 6.4 | 17.7 | 0.00 | 0.00 | 0.00 | 51 | 1019.6 |
| 20260505191454 | 6 | 352 | 4.8 | 14.5 | 0.00 | 0.00 | 0.00 | 45 | 1019.6 |
| 20260505190515 | 6 | 350 | 4.8 | 14.5 | 0.00 | 0.00 | 0.00 | 48 | 1019.6 |
| 20260505185515 | 5 | 332 | 4.8 | 16.1 | 0.00 | 0.00 | 0.00 | 50 | 1019.6 |
| 20260505184510 | 5 | 13 | 6.4 | 16.1 | 0.00 | 0.00 | 0.00 | 49 | 1019.6 |
| 20260505182336 | 5 | 7 | 6.4 | 16.1 | 0.00 | 0.00 | 0.00 | 49 | 1019.6 |
| 20260505181321 | 6 | 351 | 4.8 | 6.4 | 0.00 | 0.00 | 0.00 | 48 | 1019.5 |
| 20260505175617 | 5 | 304 | 3.2 | 14.5 | 0.00 | 0.00 | 0.00 | 51 | 1019.5 |
| 20260505174617 | 5 | 223 | 4.8 | 14.5 | 0.00 | 0.00 | 0.00 | 52 | 1019.6 |
| 20260505173549 | 5 | 291 | 3.2 | 14.5 | 0.00 | 0.00 | 0.00 | 51 | 1019.5 |
| 20260505172526 | 5 | 247 | 4.8 | 17.7 | 0.00 | 0.00 | 0.00 | 51 | 1019.5 |
| 20260505171536 | 5 | 256 | 4.8 | 17.7 | 0.00 | 0.00 | 0.00 | 53 | 1019.3 |
| 20260505163206 | 5 | 328 | 4.8 | 17.7 | 0.00 | 0.00 | 0.00 | 53 | 1019.4 |
| 20260505162209 | 5 | 345 | 6.4 | 17.7 | 0.00 | 0.00 | 0.00 | 52 | 1019.3 |
| 20260505161210 | 5 | 340 | 4.8 | 14.5 | 0.00 | 0.00 | 0.00 | 55 | 1019.3 |
| 20260505160233 | 4 | 1 | 4.8 | 14.5 | 0.00 | 0.00 | 0.00 | 54 | 1019.3 |
| 20260505153247 | 3 | 43 | 1.6 | 16.1 | 0.00 | 0.00 | 0.00 | 56 | 1019.5 |
| 20260505152306 | 3 | 32 | 3.2 | 14.5 | 0.00 | 0.00 | 0.00 | 56 | 1019.6 |
| 20260505151232 | 3 | 37 | 3.2 | 14.5 | 0.00 | 0.00 | 0.00 | 58 | 1019.5 |
| 20260505150222 | 3 | 43 | 3.2 | 12.9 | 0.00 | 0.00 | 0.00 | 59 | 1019.6 |
| 20260505140232 | 2 | 220 | 0.0 | 6.4 | 0.00 | 0.00 | 0.00 | 66 | 1019.3 |
| 20260505130114 | 1 | 210 | 0.0 | 6.4 | 0.00 | 0.00 | 0.00 | 80 | 1018.5 |
| 20260505122918 | 0 | 218 | 0.0 | 0.0 | 0.00 | 0.00 | 0.00 | 79 | 1018.3 |
| 20260505121908 | 1 | 218 | 0.0 | 0.0 | 0.00 | 0.00 | 0.00 | 79 | 1018.2 |
| 20260505120838 | 1 | 219 | 0.0 | 0.0 | 0.00 | 0.00 | 0.00 | 78 | 1018.2 |
| 20260505115900 | 1 | 219 | 0.0 | 0.0 | 0.00 | 0.00 | 0.00 | 78 | 1018.1 |
| 20260505114844 | 1 | 219 | 0.0 | 0.0 | 0.00 | 0.00 | 0.00 | 77 | 1018.1 |
| 20260505113850 | 1 | 219 | 0.0 | 0.0 | 0.00 | 0.00 | 0.00 | 77 | 1018.0 |
| 20260505112817 | 1 | 219 | 0.0 | 4.8 | 0.00 | 0.00 | 0.00 | 75 | 1018.1 |
| 20260505111748 | 1 | 219 | 1.6 | 9.7 | 0.00 | 0.00 | 0.00 | 74 | 1018.0 |
| 20260505110807 | 1 | 219 | 1.6 | 9.7 | 0.00 | 0.00 | 0.00 | 74 | 1017.9 |
| 20260505100744 | 1 | 220 | 1.6 | 12.9 | 0.00 | 0.00 | 0.00 | 65 | 1017.9 |
| 20260505095723 | 1 | 221 | 1.6 | 12.9 | 0.00 | 0.00 | 0.00 | 65 | 1017.7 |
| 20260505091357 | 0 | 239 | 0.0 | 3.2 | 0.00 | 0.00 | 0.00 | 77 | 1017.7 |
| 20260505090416 | 0 | 239 | 0.0 | 3.2 | 0.00 | 0.00 | 0.00 | 76 | 1017.8 |
| 20260505084309 | 0 | 239 | 0.0 | 0.0 | 0.00 | 0.00 | 0.00 | 76 | 1018.0 |
| 20260505083328 | 0 | 239 | 0.0 | 0.0 | 0.00 | 0.00 | 0.00 | 76 | 1018.0 |
| 20260505082323 | 0 | 239 | 0.0 | 0.0 | 0.00 | 0.00 | 0.00 | 76 | 1018.1 |
| 20260505081336 | 0 | 239 | 0.0 | 0.0 | 0.00 | 0.00 | 0.00 | 76 | 1017.8 |
| 20260505075217 | 0 | 239 | 0.0 | 0.0 | 0.00 | 0.00 | 0.00 | 76 | 1017.8 |
| 20260505074228 | 0 | 239 | 0.0 | 0.0 | 0.00 | 0.00 | 0.00 | 75 | 1017.8 |
| 20260505073207 | 0 | 239 | 0.0 | 0.0 | 0.00 | 0.00 | 0.00 | 74 | 1017.8 |
| 20260505071108 | 0 | 239 | 0.0 | 3.2 | 0.00 | 0.00 | 0.00 | 73 | 1017.8 |
| 20260505070132 | 0 | 239 | 0.0 | 1.6 | 0.00 | 0.00 | 0.00 | 72 | 1017.8 |
| 20260505065136 | 0 | 239 | 0.0 | 0.0 | 0.00 | 0.00 | 0.00 | 72 | 1017.8 |
| 20260505064118 | 0 | 239 | 0.0 | 4.8 | 0.00 | 0.00 | 0.00 | 71 | 1017.5 |
| 20260505061932 | 0 | 239 | 0.0 | 0.0 | 0.00 | 0.00 | 0.00 | 71 | 1017.3 |
| 20260505060907 | 0 | 239 | 0.0 | 0.0 | 0.00 | 0.00 | 0.00 | 72 | 1017.3 |
| 20260505054801 | 0 | 239 | 0.0 | 0.0 | 0.00 | 0.00 | 0.00 | 69 | 1017.1 |
| 20260505053801 | 0 | 239 | 0.0 | 0.0 | 0.00 | 0.00 | 0.00 | 68 | 1017.0 |
| 20260505052818 | 0 | 239 | 0.0 | 0.0 | 0.00 | 0.00 | 0.00 | 66 | 1016.9 |
| 20260505051826 | 1 | 240 | 0.0 | 0.0 | 0.00 | 0.00 | 0.00 | 65 | 1016.8 |
| 20260505050850 | 1 | 240 | 0.0 | 0.0 | 0.00 | 0.00 | 0.00 | 67 | 1016.8 |
| 20260505041619 | 3 | 240 | 0.0 | 0.0 | 0.00 | 0.00 | 0.00 | 59 | 1015.9 |
| 20260505040624 | 3 | 240 | 0.0 | 0.0 | 0.00 | 0.00 | 0.00 | 58 | 1015.7 |
| 20260505034526 | 4 | 240 | 0.0 | 0.0 | 0.00 | 0.00 | 0.00 | 53 | 1015.4 |
| 20260505033516 | 5 | 240 | 0.0 | 0.0 | 0.00 | 0.00 | 0.00 | 50 | 1015.2 |
| 20260505032525 | 5 | 240 | 0.0 | 0.0 | 0.00 | 0.00 | 0.00 | 50 | 1015.1 |
| 20260505031454 | 6 | 222 | 0.0 | 0.0 | 0.00 | 0.00 | 0.00 | 47 | 1014.9 |
| 20260505024217 | 7 | 26 | 0.0 | 8.0 | 0.00 | 0.00 | 0.00 | 42 | 1014.4 |
| 20260505022058 | 7 | 16 | 0.0 | 6.4 | 0.00 | 0.00 | 0.00 | 42 | 1014.1 |
| 20260505015927 | 8 | 0 | 1.6 | 6.4 | 0.00 | 0.00 | 0.00 | 41 | 1013.9 |
| 20260505014949 | 8 | 354 | 0.0 | 6.4 | 0.00 | 0.00 | 0.00 | 41 | 1013.9 |
| 20260505013923 | 8 | 353 | 1.6 | 14.5 | 0.00 | 0.00 | 0.00 | 41 | 1013.8 |
| 20260505012904 | 8 | 355 | 1.6 | 14.5 | 0.00 | 0.00 | 0.00 | 42 | 1013.7 |
| 20260505011917 | 8 | 353 | 1.6 | 16.1 | 0.00 | 0.00 | 0.00 | 42 | 1013.8 |
| 20260505010843 | 8 | 353 | 3.2 | 16.1 | 0.00 | 0.00 | 0.00 | 43 | 1013.8 |
| 20260505005901 | 8 | 355 | 4.8 | 12.9 | 0.00 | 0.00 | 0.00 | 42 | 1013.7 |